Torrington, WY

11:39 AM MDT on March 24, 2017 (GMT -0600)
Torrington Municipal

Weather History for KTOR - June, 2013

Change the Weather History Date:

Tuesday, June 4, 2013

  Actual Average Record
Temperature  
Mean Temperature 60 °F 62 °F  
Max Temperature 71 °F 77 °F 96 °F (2012)
Min Temperature 48 °F 48 °F 33 °F (1998)
Degree Days  
Heating Degree Days 5 5  
Month to date heating degree days 18 20  
Since 1 June heating degree days 18 20  
Since 1 July heating degree days 6498 6531  
Cooling Degree Days 0 2  
Month to date cooling degree days 3 8  
Year to date cooling degree days 42 26  
Since 1 June cooling degree days 3 8  
Growing Degree Days 9 (Base 50)    
Moisture  
Dew Point 39 °F    
Average Humidity 53    
Maximum Humidity 72    
Minimum Humidity 33    
Precipitation  
Precipitation T in 0.11 in 1.40 in (2005)
Month to date precipitation T 0.45  
Year to date precipitation 3.68 5.93  
Sea Level Pressure  
Sea Level Pressure 29.99 in    
Wind  
Wind Speed 10 mph (North)    
Max Wind Speed 26 mph    
Max Gust Speed 36 mph    
Visibility 10 miles    
Events Rain    
T = Trace of Precipitation, MM = Missing Value Source: NWS Daily Summary

Daily Weather History Graph

Daily Weather History Graph

Search for Another Location

Airport or City:

Trip Planner

Search our weather history database for the weather conditions in past years. The results will help you decide how hot, cold, wet, or windy it might be!

Date:

Astronomy

Jun. 04, 2013 Rise Set
Actual Time 5:22 AM MDT 8:28 PM MDT
Civil Twilight 4:48 AM MDT 9:02 PM MDT
Nautical Twilight 4:04 AM MDT 9:45 PM MDT
Astronomical Twilight 3:13 AM MDT 10:37 PM MDT
Moon 2:56 AM MDT (6/4) 4:57 PM MDT (6/4)
Length of Visible Light 16h 14m
Length of Day
15h 06m
Waning Crescent, 14% of the Moon is Illuminated
Jun 4
Waning Crescent
Jun 8
New
Jun 16
First Quarter
Jun 23
Full
Jun 29
Last Quarter

Hourly Weather History & Observations

Time (MDT) Temp. Dew Point Humidity Pressure Visibility Wind Dir Wind Speed Gust Speed Precip Events Conditions
12:53 AM 55.0 °F 46.0 °F 72% 29.84 in 10.0 mi North 11.5 mph 16.1 mph N/A   Scattered Clouds
1:53 AM 52.0 °F 39.0 °F 61% 29.88 in 10.0 mi Calm Calm - N/A   Mostly Cloudy
2:53 AM 51.1 °F 37.9 °F 61% 29.90 in 10.0 mi North 8.1 mph - N/A   Mostly Cloudy
3:53 AM 50.0 °F 37.0 °F 61% 29.91 in 10.0 mi North 8.1 mph - N/A   Overcast
4:53 AM 48.9 °F 37.0 °F 64% 29.94 in 10.0 mi North 9.2 mph - N/A   Overcast
5:53 AM 48.9 °F 37.9 °F 66% 29.96 in 10.0 mi North 4.6 mph - N/A   Mostly Cloudy
6:53 AM 50.0 °F 37.9 °F 63% 29.99 in 10.0 mi North 5.8 mph - N/A   Overcast
7:53 AM 53.1 °F 37.0 °F 55% 29.99 in 10.0 mi North 12.7 mph - N/A   Partly Cloudy
8:53 AM 55.9 °F 37.0 °F 49% 30.01 in 10.0 mi NNW 6.9 mph - N/A   Clear
9:53 AM 59.0 °F 36.0 °F 42% 29.99 in 10.0 mi Variable 5.8 mph - N/A   Clear
10:53 AM 62.1 °F 37.9 °F 41% 29.98 in 10.0 mi North 5.8 mph - N/A   Clear
11:53 AM 64.0 °F 39.0 °F 40% 29.97 in 10.0 mi Variable 3.5 mph - N/A   Clear
12:53 PM 68.0 °F 39.9 °F 36% 29.95 in 10.0 mi North 6.9 mph - N/A   Partly Cloudy
1:53 PM 68.0 °F 39.9 °F 36% 29.94 in 10.0 mi North 8.1 mph 19.6 mph N/A   Clear
2:53 PM 70.0 °F 39.0 °F 32% 29.94 in 10.0 mi Variable 4.6 mph 16.1 mph N/A   Scattered Clouds
3:53 PM 66.9 °F 39.9 °F 37% 29.96 in 10.0 mi North 17.3 mph 21.9 mph N/A   Scattered Clouds
4:53 PM 64.9 °F 37.9 °F 37% 29.99 in 10.0 mi North 15.0 mph - N/A   Mostly Cloudy
5:53 PM 63.0 °F 39.0 °F 41% 30.01 in 10.0 mi NNE 24.2 mph 31.1 mph N/A   Mostly Cloudy
6:53 PM 61.0 °F 37.0 °F 41% 30.04 in 10.0 mi North 20.7 mph 27.6 mph N/A   Overcast
7:53 PM 59.0 °F 37.0 °F 44% 30.09 in 10.0 mi North 18.4 mph - N/A   Overcast
8:53 PM 57.0 °F 37.9 °F 49% 30.12 in 10.0 mi North 15.0 mph 24.2 mph N/A   Overcast
9:53 PM 50.0 °F 44.1 °F 80% 30.14 in 10.0 mi NNE 17.3 mph 23.0 mph 0.00 in Rain Light Rain
10:53 PM 50.0 °F 44.1 °F 80% 30.15 in 10.0 mi Calm Calm - 0.00 in   Overcast
11:53 PM 51.1 °F 42.1 °F 71% 30.15 in 10.0 mi North 3.5 mph - N/A   Overcast